Voltar ao catálogo

STARLINK-36675

AtivoComunicaçõesSSO
NORAD 67663·PAYLOAD·🇺🇸 United States

Lançado Feb 2, 2026 de Vandenberg Space Force Base

Loading…

Próximas Passagens (próximas 24 horas)

TLE

AtualizadoSource: CelesTrak SupGP

Época: Sep 14, 2026, 21:30 UTC

1 67663C 26022R   26257.89631944  .00017673  00000+0  54870-3 0  2573
2 67663  97.2845 289.5933 0001140  98.5241 195.2913 15.33424490    15

Acompanhe STARLINK-36675 em tempo real com AllMySat

Download on the App Store